Content
SEND FEEDBACK

Daily
Averages
Monthly
Summary
United States of America

EUREKA, CALIFORNIA


Home > North America > United States > California
Elevation: 59 feet     Latitude: 40 48N     Longitude: 124 07W

WEATHER
 
SELECT A DAY
Number of Records: 241,081;   Date Range: 1/1/95 - 9/21/14
 
SHARE

PRINT THIS DATA

[ ← Previous Day ]
WEATHER ALMANAC - JULY 23, 2013
[ Next Day → ]
[ °C ]   °F
Weather ElementAverageHighLow
Temperature49.5 °F54 °F (6:53 pm)46 °F (5:53 am)
Dewpoint48.4 °F51.8 °F (9:19 am)44.6 °F (6:07 am)
Humidity96.1 %100 % (12:29 am)86 % (2:53 pm)
Barometer30.01 in30.06 in (10:53 am)29.96 in (5:40 am)
Wind Speed3.4 mph19.6 mph (8:53 pm)
Wind Gust59.8 mph (11:30 pm)
Weather ElementAverage
Visibility3 mi
Wind DirectionSSE (153 °)

Weather ElementTotal
Precipitation---
Heating Degree Days15 (Base 65)
Averaged from 61 records on July 23, 2013
WEATHER CONDITIONS BREAKOUT
WIND DIRECTION BREAKOUT
WEATHER BY HOUR - JULY 23, 2013
[ °C ]   °F
Local TimeTemperatureDewpointHumidityBarometerVisibilityWind DirectionWind SpeedGust SpeedPrecipitationEventsConditions
12:29 AM48.2 °F48.2 °F100 %30.00 in0.5 miSSW (200°)3.5 mphFogFog
12:38 AM48.2 °F48.2 °F100 %30.00 in0.2 miCalmFogFog
12:53 AM48.9 °F48.9 °F100 %30.01 in0.2 miSouth (170°)3.5 mphFogFog
1:15 AM48.2 °F48.2 °F100 %30.00 in0.5 miSSE (160°)4.6 mphFogFog
1:53 AM50.0 °F50.0 °F100 %30.01 in0.2 miSSE (150°)3.5 mphFogFog
2:04 AM48.2 °F48.2 °F100 %29.99 in0.8 miSSW (200°)4.6 mphMist
2:13 AM48.2 °F48.2 °F100 %29.99 in1.2 miSSW (210°)4.6 mphOvercast
2:22 AM48.2 °F48.2 °F100 %29.99 in0.5 miSouth (180°)3.5 mphFogFog
2:53 AM48.9 °F48.9 °F100 %30.01 in0.2 miCalmFogFog
3:00 AM48.2 °F48.2 °F100 %29.99 in0.5 miSSW (210°)4.6 mphFogFog
3:07 AM48.2 °F48.2 °F100 %29.98 in0.2 miSouth (190°)3.5 mphFogFog
3:24 AM48.2 °F48.2 °F100 %29.98 in0.2 miSSE (160°)3.5 mphFogFog
3:53 AM48.0 °F48.0 °F100 %30.00 in0.2 miCalmFogFog
4:05 AM48.2 °F48.2 °F100 %29.98 in0.5 miCalmFogFog
4:53 AM48.0 °F48.0 °F100 %29.99 in0.5 miENE (60°)3.5 mphFogFog
5:40 AM46.4 °F46.4 °F100 %29.96 in0.5 miCalmFogFog
5:53 AM46.0 °F46.0 °F100 %29.99 in1.0 miCalmMist
6:07 AM46.4 °F44.6 °F93 %29.97 in3.0 miNorth (10°)3.5 mphMostly Cloudy
6:14 AM46.4 °F44.6 °F93 %29.97 in1.0 miNNE (20°)4.6 mphMist
6:16 AM46.4 °F44.6 °F93 %29.97 in0.2 miNNE (20°)4.6 mphFogFog
6:25 AM46.4 °F46.4 °F100 %29.97 in0.2 miNE (50°)3.5 mphFogFog
6:33 AM46.4 °F46.4 °F100 %29.97 in0.2 miCalmFogFog
6:44 AM46.4 °F46.4 °F100 %29.98 in0.2 miCalmFogFog
6:53 AM46.9 °F46.9 °F100 %29.99 in0.2 miNNE (30°)3.5 mphFogFog
7:21 AM48.2 °F48.2 °F100 %29.98 in0.2 miCalmFogFog
7:40 AM48.2 °F48.2 °F100 %29.98 in0.2 miCalmFogFog
7:53 AM48.0 °F48.0 °F100 %30.00 in0.2 miCalmFogFog
8:01 AM48.2 °F48.2 °F100 %29.99 in0.2 miCalmFogFog
8:32 AM48.2 °F48.2 °F100 %30.00 in0.2 miSSW (200°)3.5 mphFogFog
8:53 AM50.0 °F50.0 °F100 %30.02 in0.2 miSSW (210°)3.5 mphFogFog
9:08 AM50.0 °F50.0 °F100 %30.01 in0.5 miSouth (190°)5.8 mphFogFog
9:19 AM51.8 °F51.8 °F100 %30.01 in2.0 miSSE (160°)3.5 mphOvercast
9:27 AM51.8 °F51.8 °F100 %30.02 in10.0 miSouth (190°)4.6 mphOvercast
9:53 AM51.1 °F51.1 °F100 %30.05 in10.0 miSouth (190°)4.6 mphOvercast
10:39 AM51.8 °F48.2 °F88 %30.03 in1.5 miWNW (290°)6.9 mphOvercast
10:49 AM50.0 °F48.2 °F94 %30.04 in0.5 miWNW (290°)5.8 mphFogFog
10:53 AM50.0 °F48.9 °F96 %30.06 in0.5 miWNW (290°)4.6 mphFogFog
11:02 AM50.0 °F48.2 °F94 %30.03 in0.2 miNNW (330°)5.8 mphFogFog
11:20 AM50.0 °F48.2 °F94 %30.03 in0.5 miNNW (340°)5.8 mphFogFog
11:41 AM50.0 °F48.2 °F94 %30.03 in0.2 miNNW (330°)3.5 mphFogFog
11:49 AM50.0 °F48.2 °F94 %30.03 in0.8 miNW (310°)4.6 mphMist
11:53 AM50.0 °F48.9 °F96 %30.06 in1.0 miWest (280°)4.6 mphMist
12:01 PM48.2 °F48.2 °F100 %30.04 in0.5 miCalmFogFog
12:43 PM50.0 °F48.2 °F94 %30.04 in2.0 miCalmOvercast
12:51 PM51.8 °F48.2 °F88 %30.03 in3.0 miNNW (340°)6.9 mphOvercast
12:53 PM51.1 °F48.9 °F92 %30.06 in3.0 miNNW (330°)4.6 mphOvercast
12:59 PM50.0 °F48.2 °F94 %30.03 in1.8 miNNW (330°)5.8 mphOvercast
1:15 PM51.8 °F48.2 °F88 %30.03 in3.0 miNorth (360°)3.5 mphOvercast
1:49 PM51.8 °F48.2 °F88 %30.02 in10.0 miNW (320°)8.1 mphScattered Clouds
1:53 PM51.1 °F48.9 °F92 %30.04 in10.0 miNW (310°)5.8 mphPartly Cloudy
2:53 PM53.1 °F48.9 °F86 %30.05 in10.0 miWNW (300°)3.5 mphPartly Cloudy
3:53 PM53.1 °F50.0 °F89 %30.04 in10.0 miCalmClear
4:53 PM53.1 °F48.9 °F86 %30.04 in10.0 miNW (320°)4.6 mphClear
5:53 PM53.1 °F48.9 °F86 %30.05 in10.0 miNNW (330°)4.6 mphClear
6:53 PM54.0 °F50.0 °F86 %30.05 in10.0 miCalmClear
7:53 PM51.1 °F48.9 °F92 %30.06 in10.0 miCalmPartly Cloudy
8:53 PM52.0 °F50.0 °F93 %30.05 in10.0 miESE (110°)19.6 mph54.1 mphClear
9:53 PM51.1 °F50.0 °F96 %30.05 in10.0 miCalmClear
10:53 PM51.1 °F50.0 °F96 %30.04 in10.0 miCalmClear
11:30 PM51.8 °F50.0 °F94 %30.03 in8.0 miNNW (330°)4.6 mph59.8 mphPartly Cloudy
11:53 PM50.0 °F48.9 °F96 %30.04 in10.0 miNNW (330°)3.5 mphScattered Clouds
Hourly data recorded from KACV, located miles away from Eureka, California







STORIES FROM OUR PARTNERS